Anchialos, Greece

10:42 AM EET on December 13, 2017 (GMT +0200)
Almiros Air Base

Weather History for LGBL - April, 2013

Change the Weather History Date:

Tuesday, April 23, 2013

  Actual Average Record
Temperature  
Mean Temperature 58 °F -  
Max Temperature 69 °F - - ()
Min Temperature 48 °F - - ()
Degree Days  
Heating Degree Days 6    
Growing Degree Days 8 (Base 50)    
Moisture  
Dew Point 48 °F    
Average Humidity 65    
Maximum Humidity 87    
Minimum Humidity 43    
Precipitation  
Precipitation 0.00 in - - ()
Sea Level Pressure  
Sea Level Pressure 30.19 in    
Wind  
Wind Speed 5 mph ()    
Max Wind Speed 14 mph    
Max Gust Speed -    
Visibility 6.2 miles    
Events      
T = Trace of Precipitation, MM = Missing Value Source: Averaged Metar Reports

Daily Weather History Graph

Daily Weather History Graph

Search for Another Location

Airport or City:

Trip Planner

Search our weather history database for the weather conditions in past years. The results will help you decide how hot, cold, wet, or windy it might be!

Date:

Astronomy

Apr. 23, 2013 Rise Set
Actual Time 6:40 AM EEST 8:14 PM EEST
Civil Twilight 6:12 AM EEST 8:42 PM EEST
Nautical Twilight 5:38 AM EEST 9:16 PM EEST
Astronomical Twilight 5:02 AM EEST 9:52 PM EEST
Moon 5:49 PM EEST (4/23) 4:57 AM EEST (4/23)
Length of Visible Light 14h 29m
Length of Day
13h 33m
Waxing Gibbous, 92% of the Moon is Illuminated
Apr 23
Waxing Gibbous
Apr 25
Full
May 2
Last Quarter
May 10
New
May 18
First Quarter

Hourly Weather History & Observations

Time (EEST) Temp. Dew Point Humidity Pressure Visibility Wind Dir Wind Speed Gust Speed Precip Events Conditions
12:50 AM 53.6 °F 48.2 °F 82% 30.09 in 6.2 mi Calm Calm - N/A   Mostly Cloudy
1:50 AM 51.8 °F 46.4 °F 82% 30.12 in 6.2 mi WSW 4.6 mph - N/A   Mostly Cloudy
2:50 AM 50.0 °F 46.4 °F 87% 30.12 in 6.2 mi Calm Calm - N/A   Mostly Cloudy
3:50 AM 50.0 °F 46.4 °F 87% 30.12 in 6.2 mi Calm Calm - N/A   Mostly Cloudy
5:50 AM 48.2 °F 44.6 °F 87% 30.12 in 6.2 mi Calm Calm - N/A   Mostly Cloudy
6:20 AM 50.0 °F 44.6 °F 82% 30.12 in 6.2 mi Calm Calm - N/A   Mostly Cloudy
6:50 AM 48.2 °F 44.6 °F 87% 30.15 in 6.2 mi SW 4.6 mph - N/A   Mostly Cloudy
7:20 AM 51.8 °F 44.6 °F 76% 30.15 in 6.2 mi SW 4.6 mph - N/A   Mostly Cloudy
7:50 AM 51.8 °F 46.4 °F 82% 30.18 in 6.2 mi WSW 3.5 mph - N/A   Scattered Clouds
8:20 AM 53.6 °F 48.2 °F 82% 30.18 in 6.2 mi Calm Calm - N/A   Scattered Clouds
8:50 AM 57.2 °F 50.0 °F 77% 30.21 in 6.2 mi Calm Calm - N/A   Partly Cloudy
9:20 AM 60.8 °F 51.8 °F 72% 30.21 in 6.2 mi Calm Calm - N/A   Partly Cloudy
9:50 AM 64.4 °F 53.6 °F 68% 30.21 in 6.2 mi East 4.6 mph - N/A   Partly Cloudy
10:50 AM 64.4 °F 51.8 °F 64% 30.21 in 6.2 mi East 5.8 mph - N/A   Scattered Clouds
11:20 AM 66.2 °F 50.0 °F 56% 30.21 in 6.2 mi East 6.9 mph - N/A   Mostly Cloudy
11:50 AM 66.2 °F 48.2 °F 52% 30.21 in 6.2 mi ESE 8.1 mph - N/A   Scattered Clouds
12:20 PM 68.0 °F 50.0 °F 52% 30.21 in 6.2 mi East 10.4 mph - N/A   Scattered Clouds
12:50 PM 68.0 °F 51.8 °F 56% 30.21 in 6.2 mi East 11.5 mph - N/A   Scattered Clouds
1:20 PM 68.0 °F 51.8 °F 56% 30.21 in 6.2 mi East 11.5 mph - N/A   Scattered Clouds
1:50 PM 68.0 °F 50.0 °F 52% 30.21 in 6.2 mi East 12.7 mph - N/A   Partly Cloudy
2:20 PM 68.0 °F 48.2 °F 49% 30.21 in 6.2 mi East 13.8 mph - N/A   Partly Cloudy
2:50 PM 68.0 °F 48.2 °F 49% 30.21 in 6.2 mi East 13.8 mph - N/A   Partly Cloudy
3:20 PM 69.8 °F 48.2 °F 46% 30.21 in 6.2 mi East 13.8 mph - N/A   Partly Cloudy
3:50 PM 69.8 °F 46.4 °F 43% 30.21 in 6.2 mi East 13.8 mph - N/A   Partly Cloudy
4:20 PM 68.0 °F 48.2 °F 49% 30.21 in 6.2 mi East 13.8 mph - N/A   Partly Cloudy
4:50 PM 69.8 °F 48.2 °F 46% 30.18 in 6.2 mi East 13.8 mph - N/A   Scattered Clouds
5:20 PM 69.8 °F 48.2 °F 46% 30.18 in 6.2 mi East 13.8 mph - N/A   Scattered Clouds
5:50 PM 68.0 °F 46.4 °F 46% 30.18 in 6.2 mi East 11.5 mph - N/A   Scattered Clouds
6:20 PM 66.2 °F 48.2 °F 52% 30.18 in 6.2 mi East 9.2 mph - N/A   Scattered Clouds
6:50 PM 64.4 °F 48.2 °F 56% 30.18 in 6.2 mi East 9.2 mph - N/A   Scattered Clouds
7:20 PM 64.4 °F 48.2 °F 56% 30.18 in 6.2 mi East 5.8 mph - N/A   Scattered Clouds
7:50 PM 62.6 °F 50.0 °F 63% 30.18 in 6.2 mi NNE 4.6 mph - N/A   Mostly Cloudy
8:20 PM 60.8 °F 50.0 °F 68% 30.18 in 6.2 mi NNE 4.6 mph - N/A   Mostly Cloudy
9:50 PM 57.2 °F 51.8 °F 82% 30.24 in 6.2 mi North 3.5 mph - N/A   Mostly Cloudy
10:50 PM 55.4 °F 46.4 °F 72% 30.24 in 6.2 mi West 3.5 mph - N/A   Mostly Cloudy
11:50 PM 53.6 °F 46.4 °F 77% 30.27 in 6.2 mi Calm Calm - N/A   Scattered Clouds